This is the latest recevied weather packets stored in our database for station/object BRIVER. If no packets are shown the sender has not sent any weather packets the latest 10 day(s).
| Time | Temp. | Humidity | Pressure | Rain* | Wind** | Luminosity | Snow |
|---|---|---|---|---|---|---|---|
| 1778088328 | 12.22° C | 80% | 1019 hPa | 0 mm | - | - | - |
| 1778088149 | 12.22° C | 80% | 1019 hPa | 0 mm | - | - | - |
| 1778088028 | 11.67° C | 79% | 1019 hPa | 0 mm | - | - | - |
| 1778087728 | 11.11° C | 81% | 1018.9 hPa | 0 mm | - | - | - |
| 1778087609 | 11.11° C | 82% | 1018.8 hPa | 0 mm | - | - | - |
| 1778087428 | 10.56° C | 85% | 1018.8 hPa | 0 mm | - | - | - |
| 1778087128 | 10.56° C | 89% | 1018.7 hPa | 0 mm | - | - | - |
| 1778087069 | 10° C | 90% | 1018.7 hPa | 0 mm | - | - | - |
| 1778086828 | 10° C | 93% | 1018.7 hPa | 0 mm | - | - | - |
| 1778086528 | 10.56° C | 90% | 1018.7 hPa | 0 mm | - | - | - |
| 1778086228 | 11.11° C | 88% | 1018.6 hPa | 0 mm | - | - | - |
| 1778085989 | 11.67° C | 86% | 1018.6 hPa | 0 mm | - | - | - |
| 1778085928 | 11.67° C | 85% | 1018.6 hPa | 0 mm | - | - | - |
| 1778085628 | 11.67° C | 84% | 1018.5 hPa | 0 mm | - | - | - |
| 1778085449 | 12.22° C | 87% | 1018.5 hPa | 0 mm | - | - | - |
| 1778085328 | 12.22° C | 90% | 1018.4 hPa | 0 mm | - | - | - |
| 1778085028 | 12.22° C | 90% | 1018.3 hPa | 0 mm | - | - | - |
| 1778084909 | 12.22° C | 91% | 1018.2 hPa | 0 mm | - | - | - |
| 1778084728 | 11.67° C | 92% | 1018.2 hPa | 0 mm | - | - | - |
| 1778084428 | 11.67° C | 92% | 1018.1 hPa | 0 mm | - | - | - |
| 1778084369 | 11.67° C | 92% | 1018.1 hPa | 0 mm | - | - | - |
| 1778084128 | 11.11° C | 94% | 1018.1 hPa | 0 mm | - | - | - |
| 1778083828 | 11.11° C | 95% | 1018.2 hPa | 0 mm | - | - | - |
| 1778083528 | 10.56° C | 95% | 1018.2 hPa | 0 mm | - | - | - |
| 1778083289 | 10.56° C | 96% | 1018.3 hPa | 0 mm | - | - | - |
* Rain latest hour (hover to see other rain measurements)
** Current wind speed in m/s (hover to see current wind gust speed)